Temp
-23 -23 -23 -22 -22 -22 -22 -21 -21 -21 -21 -21 -21 -21 -21 -21 -20 -20 -19 -19 -18 -18 -18 -18 -18 -18 -18 -18 -18 -18 -18 -18 -18 -18 -18 -18 -18 -18 -18 -18 -18 -18
-23 -23 -23 -23 -22 -22 -22 -21 -21 -21 -21 -21 -21 -21 -21 -20 -20 -19 -19 -18 -18 -18 -18 -17 -17 -18 -18 -19 -19 -18 -18 -18 -18 -18 -18 -18 -18 -18 -18 -18 -18 -18
-23 -23 -23 -23 -23 -22 -22 -22 -22 -21 -21 -21 -20 -20 -20 -20 -19 -19 -18 -18 -17 -17 -17 -17 -17 -18 -18 -19 -19 -19 -18 -18 -18 -18 -18 -18 -18 -18 -18 -18 -18 -18
-23 -23 -23 -23 -23 -23 -23 -22 -22 -22 -21 -21 -21 -20 -20 -19 -19 -18 -18 -17 -17 -17 -17 -17 -17 -17 -18 -19 -19 -19 -18 -18 -18 -18 -18 -18 -18 -18 -18 -18 -18 -18
-24 -24 -24 -24 -24 -24 -24 -23 -22 -22 -22 -21 -21 -20 -20 -19 -19 -18 -18 -17 -17 -17 -17 -17 -17 -17 -18 -18 -19 -18 -18 -17 -18 -18 -18 -18 -18 -18 -18 -18 -18 -18
-24 -24 -25 -25 -25 -25 -24 -24 -23 -23 -22 -22 -21 -21 -20 -20 -19 -19 -18 -18 -18 -17 -17 -17 -17 -17 -17 -18 -18 -18 -17 -17 -18 -18 -18 -18 -18 -18 -18 -18 -18 -18
-24 -24 -25 -25 -25 -25 -25 -25 -25 -24 -23 -23 -22 -22 -21 -20 -19 -19 -19 -18 -18 -17 -17 -17 -17 -17 -17 -18 -17 -17 -17 -17 -17 -18 -18 -18 -18 -18 -18 -18 -18 -18
-24 -24 -24 -25 -25 -25 -26 -25 -25 -25 -24 -24 -23 -22 -22 -21 -20 -19 -19 -19 -18 -17 -17 -17 -17 -17 -17 -17 -17 -17 -17 -17 -17 -18 -18 -18 -18 -18 -18 -18 -18 -18
-24 -24 -24 -24 -25 -25 -26 -26 -25 -25 -24 -24 -23 -23 -22 -21 -21 -20 -19 -19 -18 -18 -17 -17 -17 -17 -17 -16 -16 -16 -16 -17 -17 -18 -18 -18 -17 -17 -18 -18 -18 -19
-23 -24 -24 -24 -24 -25 -25 -25 -25 -25 -24 -24 -23 -23 -22 -21 -21 -20 -19 -19 -18 -18 -18 -17 -17 -17 -16 -16 -15 -16 -16 -16 -17 -17 -17 -17 -17 -18 -18 -18 -19 -19
-23 -23 -24 -24 -24 -24 -25 -25 -25 -25 -24 -24 -23 -23 -22 -22 -21 -20 -19 -19 -18 -18 -18 -17 -17 -17 -16 -16 -16 -16 -16 -16 -17 -17 -17 -17 -17 -18 -18 -18 -19 -19
-23 -23 -23 -23 -23 -24 -24 -24 -24 -24 -24 -24 -23 -23 -22 -22 -21 -20 -20 -19 -18 -18 -18 -17 -17 -17 -16 -16 -16 -16 -16 -17 -17 -17 -17 -17 -18 -18 -18 -19 -19 -20
-22 -22 -22 -22 -23 -23 -23 -23 -23 -23 -23 -23 -23 -22 -22 -21 -21 -20 -20 -19 -19 -18 -18 -17 -17 -17 -16 -16 -16 -16 -16 -17 -17 -17 -17 -18 -18 -18 -19 -19 -20 -20
-22 -22 -22 -22 -22 -22 -22 -22 -22 -23 -23 -22 -22 -22 -22 -21 -21 -20 -19 -19 -19 -18 -18 -17 -17 -17 -16 -16 -16 -16 -17 -17 -17 -18 -18 -18 -18 -19 -20 -20 -20 -20
-21 -21 -21 -21 -21 -21 -21 -21 -21 -22 -22 -22 -22 -22 -21 -21 -21 -20 -20 -19 -19 -18 -18 -18 -17 -17 -17 -16 -16 -17 -17 -17 -17 -18 -18 -18 -18 -19 -20 -20 -20 -20
-21 -21 -21 -21 -21 -21 -21 -21 -21 -21 -21 -21 -21 -21 -21 -21 -21 -20 -20 -20 -19 -18 -18 -18 -17 -17 -17 -17 -17 -17 -17 -17 -17 -17 -18 -18 -18 -19 -20 -20 -20 -20
-21 -21 -21 -21 -21 -21 -20 -20 -20 -20 -20 -20 -20 -20 -20 -20 -20 -20 -20 -20 -20 -19 -18 -18 -18 -17 -17 -17 -17 -17 -17 -17 -17 -17 -18 -18 -18 -18 -19 -20 -20 -20
-21 -21 -21 -21 -21 -20 -20 -20 -20 -20 -20 -20 -20 -20 -20 -20 -20 -20 -20 -20 -19 -19 -19 -19 -18 -18 -18 -17 -17 -17 -17 -17 -17 -17 -18 -18 -18 -18 -19 -20 -20 -20
-21 -20 -21 -21 -20 -20 -21 -20 -20 -20 -20 -20 -20 -20 -20 -20 -20 -20 -20 -19 -19 -19 -19 -19 -19 -19 -19 -18 -18 -18 -18 -17 -17 -17 -17 -18 -18 -18 -18 -19 -20 -20
-20 -20 -20 -20 -20 -20 -20 -20 -20 -20 -20 -20 -20 -20 -20 -20 -20 -20 -20 -19 -19 -19 -20 -19 -19 -19 -19 -19 -19 -19 -18 -18 -18 -18 -18 -18 -18 -18 -18 -19 -19 -19
-20 -20 -20 -20 -20 -20 -20 -20 -20 -20 -20 -20 -20 -20 -20 -20 -20 -20 -19 -19 -19 -19 -20 -20 -19 -19 -19 -19 -19 -19 -19 -19 -19 -18 -18 -18 -18 -18 -19 -19 -19 -19
-20 -20 -20 -20 -20 -20 -20 -20 -20 -20 -20 -20 -20 -19 -19 -19 -19 -19 -19 -19 -19 -19 -19 -19 -19 -19 -19 -19 -19 -19 -19 -19 -19 -19 -19 -18 -18 -18 -19 -19 -19 -19
-20 -20 -20 -20 -20 -20 -20 -20 -20 -20 -20 -19 -19 -19 -19 -19 -19 -19 -19 -19 -19 -19 -19 -19 -19 -19 -19 -19 -19 -19 -19 -19 -19 -19 -19 -19 -18 -18 -18 -19 -19 -19
-20 -20 -20 -20 -20 -20 -20 -20 -20 -20 -19 -19 -19 -19 -19 -19 -19 -19 -19 -19 -19 -19 -18 -19 -19 -19 -19 -19 -19 -19 -19 -19 -19 -19 -19 -19 -19 -19 -18 -18 -19 -19
-20 -20 -20 -20 -20 -20 -20 -20 -20 -19 -19 -19 -19 -19 -19 -19 -19 -19 -19 -19 -19 -19 -18 -18 -19 -19 -18 -18 -18 -19 -19 -19 -19 -19 -19 -19 -18 -19 -19 -19 -19 -19
-20 -20 -20 -20 -20 -20 -19 -19 -19 -19 -19 -19 -19 -19 -19 -19 -19 -19 -19 -19 -19 -19 -19 -19 -19 -19 -18 -18 -18 -18 -18 -18 -19 -19 -19 -19 -19 -19 -19 -19 -19 -19
Height
2877 2873 2870 2867 2865 2863 2861 2860 2858 2857 2856 2856 2856 2856 2856 2857 2858 2860 2863 2865 2868 2871 2874 2876 2878 2880 2882 2883 2884 2885 2885 2887 2888 2891 2893 2894 2897 2899 2901 2904 2906 2908
2870 2867 2864 2861 2858 2856 2854 2853 2851 2850 2849 2849 2849 2850 2850 2851 2852 2854 2857 2859 2862 2865 2867 2869 2872 2874 2876 2877 2878 2878 2879 2880 2882 2884 2886 2888 2891 2893 2895 2898 2900 2902
2864 2861 2857 2854 2851 2849 2847 2846 2844 2843 2843 2843 2843 2844 2844 2845 2846 2848 2851 2853 2856 2859 2861 2863 2865 2868 2870 2870 2871 2872 2873 2874 2876 2879 2880 2882 2885 2887 2890 2892 2894 2896
2858 2854 2851 2848 2845 2842 2840 2839 2838 2837 2836 2836 2836 2837 2838 2839 2840 2842 2845 2847 2850 2852 2855 2857 2859 2861 2864 2865 2866 2866 2867 2869 2871 2873 2875 2877 2880 2882 2884 2887 2888 2890
2853 2849 2846 2842 2839 2837 2834 2832 2831 2830 2830 2829 2830 2830 2832 2833 2835 2837 2839 2842 2844 2846 2849 2851 2853 2855 2858 2859 2860 2861 2862 2864 2867 2869 2871 2873 2875 2877 2879 2881 2883 2885
2850 2846 2843 2839 2836 2833 2830 2827 2826 2825 2824 2823 2823 2824 2825 2827 2829 2831 2833 2836 2838 2840 2842 2845 2847 2849 2851 2853 2854 2855 2857 2860 2862 2865 2866 2868 2870 2872 2874 2876 2878 2880
2848 2844 2840 2837 2833 2830 2827 2824 2822 2820 2819 2818 2818 2818 2819 2821 2823 2825 2827 2830 2832 2835 2837 2839 2841 2844 2846 2847 2848 2850 2853 2855 2858 2860 2861 2863 2865 2867 2869 2871 2873 2874
2846 2842 2838 2834 2831 2828 2825 2822 2819 2818 2816 2814 2813 2814 2814 2815 2817 2820 2822 2825 2827 2829 2832 2834 2836 2838 2840 2842 2844 2846 2848 2850 2853 2855 2857 2858 2860 2862 2864 2866 2868 2870
2844 2840 2837 2833 2829 2826 2823 2820 2817 2815 2813 2812 2810 2810 2811 2811 2813 2815 2818 2820 2823 2825 2827 2829 2831 2833 2835 2837 2839 2841 2843 2846 2849 2851 2852 2854 2855 2857 2859 2862 2863 2865
2842 2838 2835 2831 2828 2824 2821 2818 2815 2813 2811 2809 2808 2808 2808 2809 2810 2811 2814 2816 2819 2821 2823 2825 2827 2829 2831 2833 2835 2837 2840 2843 2845 2846 2848 2850 2851 2853 2855 2857 2859 2861
2840 2837 2834 2830 2827 2823 2820 2817 2814 2812 2810 2808 2807 2806 2806 2806 2807 2809 2811 2814 2816 2818 2820 2822 2824 2826 2828 2830 2832 2834 2836 2839 2841 2842 2844 2846 2848 2849 2851 2853 2855 2856
2840 2837 2833 2830 2826 2823 2820 2817 2814 2812 2810 2808 2807 2806 2806 2806 2807 2808 2810 2812 2814 2816 2818 2819 2821 2823 2824 2826 2828 2830 2832 2835 2837 2838 2840 2842 2844 2846 2848 2850 2851 2853
2841 2837 2834 2830 2827 2825 2821 2819 2816 2813 2811 2810 2808 2808 2807 2807 2808 2808 2810 2811 2813 2814 2816 2817 2819 2820 2822 2823 2824 2826 2828 2831 2833 2834 2836 2838 2840 2842 2844 2846 2848 2850
2842 2839 2835 2832 2830 2827 2824 2821 2819 2816 2814 2812 2811 2810 2809 2809 2809 2810 2811 2812 2813 2814 2815 2816 2817 2818 2820 2821 2822 2824 2826 2828 2829 2831 2833 2834 2836 2838 2841 2843 2845 2847
2843 2841 2838 2835 2833 2830 2827 2825 2822 2820 2818 2816 2814 2813 2812 2812 2812 2812 2812 2813 2813 2814 2815 2816 2817 2818 2819 2820 2821 2822 2824 2825 2827 2828 2829 2831 2833 2835 2837 2840 2842 2845
2845 2843 2840 2838 2835 2833 2830 2828 2826 2823 2821 2820 2818 2817 2816 2815 2815 2815 2815 2815 2815 2815 2815 2816 2816 2817 2818 2819 2820 2821 2822 2823 2824 2825 2827 2828 2829 2831 2834 2837 2839 2842
2847 2845 2842 2840 2837 2835 2833 2831 2829 2827 2825 2823 2822 2820 2820 2819 2819 2818 2817 2817 2816 2816 2816 2816 2816 2817 2817 2818 2818 2819 2820 2821 2822 2823 2824 2825 2826 2828 2830 2833 2836 2839
2849 2847 2844 2842 2840 2838 2836 2833 2831 2830 2828 2826 2825 2823 2822 2822 2821 2820 2819 2819 2818 2818 2818 2817 2817 2817 2817 2817 2817 2817 2818 2819 2819 2820 2821 2822 2823 2824 2827 2830 2832 2835
2850 2848 2846 2843 2842 2840 2838 2836 2834 2832 2830 2829 2827 2826 2825 2824 2823 2822 2821 2821 2820 2820 2819 2819 2818 2818 2817 2816 2816 2816 2816 2816 2817 2817 2818 2819 2820 2821 2823 2826 2829 2832
2852 2850 2847 2845 2843 2841 2840 2838 2836 2834 2833 2831 2830 2829 2827 2826 2825 2824 2823 2822 2822 2821 2820 2819 2819 2818 2818 2817 2816 2815 2815 2815 2815 2816 2816 2816 2817 2819 2820 2823 2826 2829
2854 2852 2849 2847 2845 2843 2841 2840 2838 2837 2835 2834 2832 2831 2829 2828 2827 2826 2825 2824 2823 2822 2821 2820 2819 2818 2818 2817 2816 2815 2815 2815 2815 2815 2815 2815 2815 2816 2818 2820 2823 2826
2855 2853 2851 2849 2847 2845 2843 2841 2840 2838 2837 2835 2834 2832 2830 2829 2828 2827 2825 2824 2823 2822 2821 2820 2819 2818 2818 2817 2816 2816 2815 2814 2815 2815 2814 2814 2814 2814 2816 2818 2821 2824
2856 2855 2853 2851 2849 2847 2845 2843 2841 2839 2838 2836 2834 2833 2831 2830 2828 2826 2825 2823 2822 2820 2820 2819 2818 2817 2816 2816 2816 2815 2815 2814 2814 2814 2814 2814 2813 2813 2814 2816 2819 2821
2857 2855 2853 2852 2850 2848 2846 2844 2842 2840 2838 2836 2834 2833 2831 2829 2827 2825 2823 2821 2819 2818 2817 2817 2816 2815 2815 2815 2814 2814 2814 2813 2813 2813 2813 2813 2813 2813 2813 2815 2817 2819
2857 2856 2854 2852 2850 2848 2846 2844 2843 2841 2839 2836 2834 2832 2830 2828 2826 2824 2821 2818 2817 2815 2815 2814 2814 2813 2813 2812 2812 2812 2812 2812 2812 2812 2812 2812 2812 2813 2813 2814 2816 2818
2857 2856 2854 2852 2850 2849 2846 2844 2843 2841 2839 2837 2835 2832 2830 2828 2825 2822 2820 2817 2815 2813 2812 2811 2811 2811 2810 2810 2810 2810 2810 2811 2811 2811 2811 2811 2812 2812 2813 2814 2815 2817
Wind_Speed
52 50 48 47 45 44 43 42 41 40 40 40 40 40 41 41 39 37 37 38 39 39 38 37 36 35 35 36 37 40 42 45 46 46 47 48 50 50 50 48 46 46
47 47 46 46 45 44 42 41 40 40 40 41 40 40 40 40 38 36 36 37 38 39 38 36 35 34 34 35 37 40 42 44 44 44 44 45 47 49 49 48 48 47
44 44 43 42 42 41 40 39 38 38 39 39 39 40 40 40 39 37 36 37 37 37 37 36 34 33 33 35 37 39 42 43 42 42 42 42 43 45 46 47 48 49
40 39 39 38 38 38 37 37 36 36 37 37 38 39 40 40 40 39 37 37 36 36 35 35 35 33 33 35 37 40 42 42 40 39 38 38 38 40 42 44 47 48
33 33 33 32 33 33 33 34 34 34 36 37 38 39 39 40 41 40 39 38 37 36 35 35 35 33 32 34 38 40 42 40 38 37 36 36 36 37 39 41 43 44
29 29 29 28 29 29 29 30 31 31 33 34 36 38 39 40 40 40 40 39 38 37 36 35 34 32 32 34 38 41 41 39 37 36 36 36 37 38 38 39 40 41
27 27 27 27 27 26 26 26 26 27 29 31 33 35 37 39 39 39 39 38 37 35 34 33 32 32 32 34 38 40 40 39 38 37 38 38 39 39 39 39 39 39
26 26 26 26 26 25 24 23 23 23 24 26 28 30 32 35 36 36 36 35 34 32 31 30 30 31 32 34 37 39 39 38 38 38 38 39 39 38 37 37 37 37
26 25 25 25 25 24 23 22 21 19 19 20 22 24 26 27 29 31 32 32 31 30 28 28 29 30 32 34 36 37 36 35 35 36 37 37 36 35 34 34 34 34
27 26 25 25 24 24 23 21 20 18 17 16 16 17 18 19 21 23 25 27 27 26 25 26 27 29 31 32 33 34 33 31 32 34 34 34 34 33 32 32 33 34
28 27 26 25 25 24 24 22 20 18 16 15 13 12 11 11 12 14 17 20 21 21 22 23 25 26 28 28 28 29 29 29 30 31 31 31 31 31 31 31 31 32
28 28 28 28 27 26 25 23 21 19 17 15 13 11 8 6 5 6 8 11 14 16 17 19 21 23 24 24 24 25 26 27 28 29 29 29 29 29 30 30 29 28
28 29 29 29 28 27 26 25 24 22 20 18 17 15 12 10 7 4 2 3 7 9 12 14 17 19 21 22 22 22 23 25 26 26 27 27 28 28 29 30 28 27
29 29 29 28 28 28 28 27 26 25 24 23 21 20 19 16 14 11 8 5 2 3 6 9 12 14 16 17 19 20 21 22 23 24 25 26 27 28 28 28 27 27
29 28 27 27 27 28 28 28 28 27 27 26 25 24 23 21 19 16 13 10 7 4 2 2 5 8 10 12 14 17 19 20 21 22 23 25 26 27 28 27 26 28
28 27 26 26 27 28 28 28 29 29 29 29 28 28 26 24 22 20 17 15 12 10 7 4 2 4 7 9 11 14 16 18 20 22 23 25 27 27 28 29 28 28
25 25 25 25 26 26 27 28 28 29 29 29 29 29 27 26 24 21 20 18 16 14 11 8 6 4 6 8 11 13 16 18 20 22 23 25 27 27 30 32 31 29
23 23 23 23 23 24 25 26 26 26 27 27 27 27 26 25 23 22 20 18 17 15 13 12 10 8 6 6 8 11 14 16 18 21 23 24 26 27 29 33 33 31
21 21 21 21 21 22 23 23 24 24 24 24 24 24 23 22 21 20 19 18 16 15 14 13 12 11 9 6 5 6 8 11 14 17 20 21 23 25 28 32 34 32
20 20 20 20 20 20 21 21 21 21 21 21 21 20 19 19 18 17 17 16 15 14 13 12 11 11 10 7 5 5 4 4 6 10 14 17 19 22 26 30 32 30
18 18 19 19 19 20 21 21 20 20 19 19 19 19 18 18 16 15 15 15 14 12 11 11 10 8 7 6 6 7 8 8 7 6 8 11 15 18 21 25 29 29
17 17 17 18 19 20 21 21 21 20 19 19 19 19 19 18 18 18 17 16 15 12 10 10 10 8 5 4 4 5 6 8 8 8 7 7 9 14 17 19 24 28
15 17 17 17 17 19 20 20 20 20 20 20 20 21 21 21 21 22 21 18 17 14 10 8 10 9 8 6 4 3 4 6 6 6 6 6 5 9 15 18 20 24
14 15 17 17 17 18 19 19 19 19 20 21 22 23 24 25 25 25 24 21 18 16 12 9 9 10 10 8 7 7 7 6 4 4 5 5 3 2 9 15 19 22
12 13 15 16 17 17 18 18 17 18 19 21 23 25 26 27 29 28 25 23 20 18 15 11 10 11 11 10 9 11 10 8 7 7 7 6 1 1 3 8 14 18
12 12 13 14 16 17 18 17 16 17 18 20 22 24 26 29 31 29 24 22 20 18 16 13 9 10 12 12 11 11 12 11 11 11 10 8 5 4 4 6 10 14
Wind_Direction
301 301 300 298 296 294 291 289 286 282 278 274 272 270 269 268 265 260 255 250 249 250 252 253 254 255 255 253 251 249 248 247 247 246 246 245 245 245 245 245 245 245
301 301 300 298 296 293 290 288 284 281 276 273 270 268 267 266 264 259 254 250 249 251 252 253 253 254 254 251 248 247 247 248 248 248 247 247 245 244 243 243 242 242
304 302 301 299 297 295 291 287 283 280 276 272 269 266 264 264 263 260 255 253 251 252 253 254 254 253 251 248 245 244 246 247 248 249 248 247 245 243 243 243 242 241
309 307 306 303 300 297 293 288 283 279 276 271 268 264 262 261 261 260 258 256 255 255 255 255 256 255 251 246 243 241 243 246 247 247 247 246 245 244 243 243 243 243
318 317 315 311 307 302 297 291 286 281 276 271 267 264 261 259 258 259 259 258 258 258 257 257 256 254 249 243 240 240 241 243 244 243 244 244 244 244 243 244 245 245
328 327 325 322 318 312 305 299 293 286 279 273 269 266 263 260 258 258 258 258 258 258 258 256 253 249 245 240 238 239 239 239 239 239 240 243 245 246 245 245 247 247
333 333 331 329 327 322 316 310 302 296 289 281 275 269 265 262 259 258 257 258 258 257 256 254 250 245 242 238 236 238 238 236 235 235 238 242 245 246 246 246 246 246
337 337 335 334 333 331 326 319 312 305 298 290 283 276 271 266 262 259 258 258 257 257 255 251 247 243 240 237 237 238 237 235 233 233 237 241 243 244 245 245 245 244
344 345 343 341 339 337 335 330 325 318 309 300 292 285 279 273 268 262 257 257 256 256 254 249 244 240 238 238 238 238 238 235 233 233 237 240 242 242 243 244 242 241
354 354 351 349 347 346 345 343 338 334 327 318 307 296 289 279 271 264 258 255 254 253 251 246 241 238 237 240 241 241 240 236 234 236 238 239 240 241 242 243 241 239
2 1 360 0 0 359 358 356 352 349 346 341 335 324 307 288 273 263 256 254 252 251 247 243 240 238 238 241 243 244 242 238 236 237 238 238 238 240 241 241 239 238
8 8 10 11 11 10 10 10 8 8 8 7 6 4 355 337 303 270 257 251 249 247 244 240 238 237 237 238 238 240 240 238 236 235 235 236 238 240 240 238 235 235
15 15 18 20 20 21 22 23 24 26 29 32 34 37 38 36 34 27 342 262 251 247 241 238 237 235 236 236 234 233 233 232 231 231 232 234 237 238 237 236 232 225
22 22 25 27 29 30 32 33 35 38 41 45 47 50 52 52 52 50 46 42 1 274 252 246 241 239 238 236 233 230 229 228 227 229 231 233 237 236 231 231 229 219
28 28 30 33 34 34 36 38 41 44 46 49 52 54 55 55 54 52 50 48 46 40 5 277 249 243 241 238 236 233 231 230 229 230 233 234 237 236 226 220 223 219
31 32 33 35 35 35 37 40 43 45 46 49 51 52 53 54 55 54 52 49 47 44 39 22 318 266 254 247 245 242 239 238 236 236 238 236 236 233 221 213 217 219
31 33 35 36 36 36 38 40 41 41 42 43 44 45 47 50 53 54 55 53 49 45 38 26 3 320 285 267 259 255 251 249 246 245 245 242 239 233 220 212 214 217
28 30 33 35 35 35 35 35 35 35 36 37 37 37 38 39 42 45 46 47 46 43 40 32 19 1 335 301 281 271 263 258 254 251 249 248 244 236 221 213 213 217
26 28 30 32 32 32 32 31 30 31 32 32 31 31 31 30 29 29 30 31 32 31 32 32 24 11 2 349 322 301 282 270 262 255 252 251 248 240 226 215 213 217
26 30 34 35 34 34 33 32 33 34 34 33 32 31 31 29 24 20 17 16 16 13 12 17 18 12 11 17 28 32 14 325 292 269 257 252 249 244 233 220 214 215
25 31 34 36 38 38 35 34 34 34 34 33 32 30 27 25 23 19 13 9 7 4 357 353 357 6 15 22 38 50 45 31 10 333 287 259 245 240 236 226 217 214
28 33 32 32 35 36 34 32 28 27 27 25 23 22 19 15 12 8 3 358 354 353 348 336 332 338 347 354 8 25 18 4 353 343 329 294 251 231 228 225 219 215
27 31 28 25 27 29 30 29 26 22 20 19 17 15 11 7 3 356 349 343 337 333 328 316 311 312 310 306 306 305 304 307 314 323 326 320 286 235 222 218 216 214
17 21 18 15 15 16 19 21 21 17 14 13 12 9 5 2 358 351 345 339 332 326 318 300 283 284 288 281 264 256 256 254 256 278 286 296 326 259 225 218 214 214
4 8 7 4 2 3 5 9 10 7 5 6 4 3 1 358 355 351 346 341 336 332 326 312 281 266 268 268 257 251 251 247 239 244 259 268 282 98 216 217 216 218
349 353 355 355 355 354 353 354 356 356 357 358 358 358 357 354 352 351 348 343 337 332 329 324 304 271 260 260 257 250 246 243 240 242 249 257 252 221 201 199 206 214